Weather in Rehoboth Beach

United States     38°42′59″N   75°04′35″W
temp.,
°C
wind,
m/s
gust,
m/s
humid.,
%
clouds,
%
prec.,
mm/h
press.,
hPa
HPBL,
m
18 may, tue
tue1823:00+17s456991 0.0 1027125
02:00+16sw4468100 0.0 1027120
05:00+15wsw336697 0.0 1028112
08:00+15wsw34660 0.0 1029144
11:00+17ene11610 0.0 103042
14:00+17sse66680 0.0 1029167
17:00+17sse89700 0.0 1027180
20:00+18ssw69650 0.0 1027140
19 may, wed
wed1923:00+17sw69660 0.0 1027163
02:00+16wsw69670 0.0 1027176
05:00+15w59780 0.0 1027212
08:00+16w58750 0.0 1028227
11:00+19nw44700 0.0 102832
14:00+19n34740 0.0 102734
17:00+21w22665 0.0 102613
20:00+22w3469100 0.0 102514
20 may, thu
thu2023:00+20wnw4472100 0.0 102639
02:00+18nw4677100 0.0 102652
05:00+18nw467897 0.0 102770
08:00+17nne348592 0.0 102984
11:00+17ese688379 0.0 1030192
14:00+17ese6773100 0.0 1031222
17:00+17ese577022 0.0 1031281
20:00+17e57685 0.0 1031276
21 may, fri
fri2123:00+16ese46715 0.0 1031266
02:00+16e5574100 0.0 1031266
05:00+16ene347485 0.0 1032271
08:00+16ne3373100 0.0 1033266
11:00+16ne1268100 0.0 1033162
14:00+16ese3369100 0.0 1031171
17:00+16sse4467100 0.0 1030164
20:00+17sse5568100 0.0 1029145
22 may, sat
sat2223:00+17s5568100 0.0 1028163
02:00+17wsw3365100 0.0 1027101
05:00+17ssw3463100 0.0 1025108
08:00+17ssw3463100 0.1 1025113
11:00+18s5670100 0.0 1024129
14:00+19s7876100 0.0 102194
17:00+20s6678100 0.0 101850
20:00+18s8984100 0.8 1017106